Berlin, NH

6:32 PM EDT on May 25, 2017 (GMT -0400)
Berlin Municipal

Weather History for KBML - January, 2002

Change the Weather History Date:

Friday, January 18, 2002

  Actual Average Record
Temperature  
Mean Temperature 14 °F -  
Max Temperature 27 °F 19 °F 48 °F (2006)
Min Temperature 0 °F 0 °F -27 °F (2000)
Degree Days  
Heating Degree Days 52    
Moisture  
Dew Point 14 °F    
Average Humidity 81    
Maximum Humidity 95    
Minimum Humidity 65    
Precipitation  
Precipitation 0.02 in - - ()
Sea Level Pressure  
Sea Level Pressure 29.89 in    
Wind  
Wind Speed 4 mph (West)    
Max Wind Speed 13 mph    
Max Gust Speed 22 mph    
Visibility 7 miles    
Events Fog , Snow    
Averages and records for this station are not official NWS values.
T = Trace of Precipitation, MM = Missing Value Source: NWS Daily Summary

Daily Weather History Graph

Daily Weather History Graph

Search for Another Location

Airport or City:

Trip Planner

Search our weather history database for the weather conditions in past years. The results will help you decide how hot, cold, wet, or windy it might be!

Date:

Astronomy

Jan. 18, 2002 Rise Set
Actual Time 7:16 AM EST 4:34 PM EST
Civil Twilight 6:44 AM EST 5:06 PM EST
Nautical Twilight 6:08 AM EST 5:42 PM EST
Astronomical Twilight 5:33 AM EST 6:17 PM EST
Moon 10:09 AM EST (1/18) 9:40 PM EST (1/18)
Length of Visible Light 10h 22m
Length of Day
9h 18m
Waxing Crescent, 23% of the Moon is Illuminated
Jan 18
Waxing Crescent
Jan 21
First Quarter
Jan 28
Full
Feb 4
Last Quarter
Feb 12
New

Hourly Weather History & Observations

Time (EST) Temp. Windchill Dew Point Humidity Pressure Visibility Wind Dir Wind Speed Gust Speed Precip Events Conditions
12:34 AM 24.8 °F 17.9 °F 19.4 °F 80% 29.82 in 9.0 mi WNW 5.8 mph - 0.00 in Snow Light Snow
12:52 AM 25.0 °F - 19.0 °F 78% 29.88 in 8.0 mi Calm Calm - 0.00 in   Overcast
1:52 AM 25.0 °F - 18.0 °F 75% 29.89 in 10.0 mi Calm Calm - N/A   Overcast
2:52 AM 25.0 °F - 19.9 °F 81% 29.90 in 9.0 mi Calm Calm - 0.00 in   Overcast
3:52 AM 23.0 °F 18.4 °F 17.1 °F 78% 29.90 in 10.0 mi Variable 3.5 mph - N/A   Overcast
4:52 AM 14.0 °F - 12.9 °F 95% 29.90 in 10.0 mi Calm Calm - N/A   Partly Cloudy
5:22 AM 5.0 °F - 3.2 °F 92% 29.83 in 1.0 mi Calm Calm - N/A   Clear
5:29 AM 6.8 °F -0.1 °F 3.2 °F 85% 29.83 in 0.8 mi East 3.5 mph - N/A   Clear
5:33 AM 6.8 °F -0.1 °F 5.0 °F 92% 29.83 in 1.8 mi East 3.5 mph - N/A   Clear
5:40 AM 6.8 °F - 3.2 °F 85% 29.84 in 8.0 mi Calm Calm - N/A   Clear
5:52 AM 5.0 °F - 3.0 °F 92% 29.91 in 10.0 mi Calm Calm - N/A   Clear
6:52 AM 3.0 °F - 1.0 °F 91% 29.93 in 7.0 mi Calm Calm - N/A   Clear
7:52 AM -0.0 °F - -2.0 °F 91% 29.93 in 10.0 mi Calm Calm - N/A   Clear
8:52 AM 6.1 °F - 3.9 °F 91% 29.93 in 9.0 mi Calm Calm - N/A   Mostly Cloudy
9:52 AM 14.0 °F - 12.9 °F 95% 29.92 in 8.0 mi Calm Calm - N/A   Overcast
10:52 AM 19.9 °F - 15.1 °F 81% 29.89 in 10.0 mi Calm Calm - N/A   Overcast
11:29 AM 23.0 °F 18.4 °F 17.6 °F 80% 29.81 in 8.0 mi SSE 3.5 mph - N/A   Overcast
11:52 AM 24.1 °F - 17.1 °F 75% 29.86 in 8.0 mi Calm Calm - 0.00 in Snow Light Snow
12:52 PM 25.0 °F 16.3 °F 18.0 °F 75% 29.84 in 10.0 mi WSW 8.1 mph - 0.00 in   Overcast
1:52 PM 25.0 °F - 18.0 °F 75% 29.83 in 9.0 mi Calm Calm - 0.00 in   Overcast
2:52 PM 27.0 °F 21.6 °F 18.0 °F 69% 29.84 in 10.0 mi Variable 4.6 mph - N/A   Overcast
2:59 PM 26.6 °F 20.0 °F 17.6 °F 69% 29.79 in 10.0 mi Variable 5.8 mph - N/A   Overcast
3:52 PM 26.1 °F 18.4 °F 16.0 °F 66% 29.86 in 9.0 mi Variable 6.9 mph - N/A   Overcast
3:56 PM 26.6 °F 16.2 °F 17.6 °F 69% 29.82 in 1.5 mi West 11.5 mph 17.3 mph 0.00 in Snow Light Snow
3:58 PM 24.8 °F 13.4 °F 19.4 °F 80% 29.82 in 0.5 mi West 12.7 mph 21.9 mph 0.00 in Snow Snow
4:05 PM 23.0 °F 14.7 °F 21.2 °F 93% 29.83 in 0.2 mi Variable 6.9 mph 21.9 mph 0.01 in Fog , Snow Heavy Snow
4:16 PM 23.0 °F 15.8 °F 19.4 °F 86% 29.83 in 1.0 mi West 5.8 mph - 0.02 in Snow Light Snow
4:18 PM 23.0 °F 15.8 °F 19.4 °F 86% 29.83 in 2.5 mi West 5.8 mph - 0.02 in Snow Light Snow
4:22 PM 23.0 °F 14.7 °F 19.4 °F 86% 29.83 in 7.0 mi West 6.9 mph - 0.02 in Snow Light Snow
4:52 PM 23.0 °F 18.4 °F 16.0 °F 74% 29.91 in 10.0 mi WNW 3.5 mph - 0.02 in   Scattered Clouds
5:52 PM 21.0 °F 14.6 °F 14.0 °F 74% 29.94 in 10.0 mi West 4.6 mph - N/A   Scattered Clouds
6:08 PM 23.0 °F 13.1 °F 15.8 °F 74% 29.88 in 2.0 mi WNW 9.2 mph - 0.00 in Snow Light Snow
6:10 PM 21.2 °F 10.1 °F 17.6 °F 86% 29.89 in 1.5 mi WNW 10.4 mph - 0.00 in Snow Light Snow
6:17 PM 21.2 °F 13.6 °F 17.6 °F 86% 29.89 in 1.2 mi WNW 5.8 mph - 0.00 in Snow Light Snow
6:22 PM 21.2 °F 13.6 °F 17.6 °F 86% 29.89 in 2.0 mi WNW 5.8 mph - 0.00 in Snow Light Snow
6:30 PM 21.2 °F 12.6 °F 17.6 °F 86% 29.90 in 4.0 mi West 6.9 mph - 0.00 in Snow Light Snow
6:33 PM 21.2 °F 13.6 °F 17.6 °F 86% 29.90 in 4.0 mi West 5.8 mph - 0.00 in Snow Light Snow
6:43 PM 21.2 °F 12.6 °F 17.6 °F 86% 29.90 in 9.0 mi Variable 6.9 mph - 0.00 in   Overcast
6:52 PM 21.0 °F 12.4 °F 17.1 °F 85% 29.99 in 10.0 mi West 6.9 mph - 0.00 in   Mostly Cloudy
7:52 PM 19.9 °F 9.3 °F 14.0 °F 78% 30.02 in 10.0 mi WNW 9.2 mph - N/A   Partly Cloudy
8:52 PM 19.9 °F 10.1 °F 10.0 °F 65% 30.04 in 10.0 mi West 8.1 mph - N/A   Overcast
9:52 PM 19.0 °F 10.0 °F 10.9 °F 71% 30.06 in 10.0 mi WNW 6.9 mph 16.1 mph N/A   Mostly Cloudy
10:52 PM 19.9 °F 8.6 °F 10.9 °F 68% 30.08 in 10.0 mi WNW 10.4 mph - N/A   Overcast
11:52 PM 18.0 °F 9.8 °F 8.1 °F 65% 30.09 in 10.0 mi West 5.8 mph - N/A   Overcast